Regional Weather Roundup
Issued by NWS

Home | Current Version | Previous Version | Graphics & Text | Print | Product List | Glossary On
Versions: 1 2 3 4 5 6 7 8 9 10 11 12 13 14 15 16 17 18 19 20 21 22 23 24 25 26 27 28 29 30 31 32 33 34 35 36 37 38 39 40 41 42 43 44 45 46 47 48 49 50
000
ASUS43 KIND 210409
RWRIN

WEATHER ROUNDUP FOR INDIANA
NATIONAL WEATHER SERVICE INDIANAPOLIS IN
1200 AM EDT SUN SEP 21 2014

NOTE: "FAIR" INDICATES FEW OR NO CLOUDS BELOW 12,000 FEET WITH NO
SIGNIFICANT WEATHER AND/OR OBSTRUCTIONS TO VISIBILITY.

* - STATION DOES NOT REPORT WEATHER SUCH AS PRECIPITATION OR FOG.

+ - STATION NOT QUALITY CONTROLLED BY THE NATIONAL WEATHER SERVICE.
    USE DATA WITH CAUTION...ESPECIALLY DEWPOINT AND RELATIVE
    HUMIDITY OBSERVATIONS.

INZ001>003-010>013-019-020-210500-
NORTHWEST INDIANA

CITY           SKY/WX    TMP DP  RH WIND       PRES   REMARKS
GARY /AIRPORT/ PTCLDY    70  69  95 S3        29.78S FOG
KNOX *+        PTCLDY    66  64  91 S6        29.79F
LA PORTE +     MOCLDY    65  65 100 SW8       29.80S
MICHIGAN CITY+ PTCLDY    66  66 100 S6        29.79S
MONTICELLO +   CLOUDY    67  67  98 S6        29.83R
RENSSELAER +   CLOUDY    68  68 100 SW5       29.82S FOG
VALPARAISO     MOCLDY    67  65  93 S7        29.80F

$$

LMZ046-743>745-210500-
SOUTHERN LAKE MICHIGAN

STATION/POSITION TIME  TEMP WIND        PRES
                       AIR  DIR/SP/G
                 (UTC) (F)  (DEG/KT/KT) (MB)
MICHIGAN CITY    0400   69  170/ 11/ 14   N/A

$$

INZ004-005-014>016-021>024-210500-
NORTH CENTRAL INDIANA

CITY           SKY/WX    TMP DP  RH WIND       PRES   REMARKS
GOSHEN         MOCLDY   N/A N/A N/A SW12      29.80F
LOGANSPORT +   CLOUDY    64  63  94 S6        29.84F
PERU/GRISSOM   PTCLDY    66 N/A N/A S9        29.84S
ROCHESTER +    CLOUDY    68  68 100 CALM      29.83F
SOUTH BEND     CLOUDY    67  65  93 SW10      29.79F
WARSAW +       MOCLDY    64  63  94 SW3       29.82F

$$

INZ006>009-017-018-025>027-210500-
NORTHEAST INDIANA

CITY           SKY/WX    TMP DP  RH WIND       PRES   REMARKS
ANGOLA *+      PTCLDY    64  63  94 SW8       29.81F
AUBURN +       LGT RAIN  64  63  94 SW6       29.83F
FORT WAYNE     CLOUDY    66  64  93 S7        29.84F
HUNTINGTON +   LGT RAIN  65  64  96 SW7       29.84S

$$

INZ028-029-035-036-043>045-051>053-210500-
WEST CENTRAL INDIANA

CITY           SKY/WX    TMP DP  RH WIND       PRES   REMARKS
GREENCASTLE +  PTCLDY    70  66  88 S3        29.89S
LAFAYETTE      TSTM      67  67 100 W13       29.86R VSB 3/4
TERRE HAUTE    PTCLDY    73  66  78 SW9       29.88S

$$

INZ030>032-037>040-046>048-054>057-064-065-210500-
CENTRAL INDIANA

CITY           SKY/WX    TMP DP  RH WIND       PRES   REMARKS
CP ATTERBURY + CLOUDY    72  64  78 S6        29.90F
FRANKFORT +    PTCLDY   N/A N/A N/A S7        29.86F
INDIANAPOLIS   MOCLDY    70  65  84 SW9       29.87F
-EAGLE CREEK   PTCLDY    70  66  87 SW7       29.86F
KOKOMO *+      MOCLDY    66  63  88 S7        29.85S
MARION +       CLOUDY    65  64  98 S9        29.85F
MT COMFORT *+  MOCLDY    70  66  88 S8        29.89S
SHELBYVILLE    MOCLDY    73  65  75 S10       29.89F
ZIONSVILLE +   PTCLDY    70  65  84 SW9       29.87S

$$

INZ033-034-041-042-049-050-058-059-210500-
EAST CENTRAL INDIANA

CITY           SKY/WX    TMP DP  RH WIND       PRES   REMARKS
MUNCIE         CLOUDY    69  65  86 S7        29.87F

$$

INZ060-061-067>069-081>083-085>088-210500-
SOUTHWEST INDIANA

CITY           SKY/WX    TMP DP  RH WIND       PRES   REMARKS
EVANSVILLE     CLEAR     73  65  75 SW8       29.95F
WASHINGTON +   CLEAR     73  67  81 SW9       29.92R

$$

INZ062-063-066-070>080-084-089>092-210500-
SOUTH CENTRAL AND SOUTHEAST INDIANA

CITY           SKY/WX    TMP DP  RH WIND       PRES   REMARKS
BLOOMINGTON    PTCLDY    71  65  81 SW8       29.92S

$$




USA.gov is the U.S. government's official web portal to all federal, state and local government web resources and services.